| time (UTC) | temp F | wind direction | speed MPH | gust MPH | rain 1hr in | rain 24hr in | rain mn in | humidity % | barometer mb |
| 20260508175520 | 57 | 141 | 8.0 | 13.0 | 0.00 | 0.00 | 0.00 | 47 | 1015.2 |
| 20260508175023 | 56 | 86 | 7.0 | 11.0 | 0.00 | 0.00 | 0.00 | 44 | 1015.2 |
| 20260508174551 | 56 | 281 | 5.0 | 11.0 | 0.00 | 0.00 | 0.00 | 45 | 1015.4 |
| 20260508174024 | 57 | 71 | 7.0 | 11.0 | 0.00 | 0.00 | 0.00 | 45 | 1015.5 |
| 20260508173520 | 57 | 148 | 3.0 | 12.0 | 0.00 | 0.00 | 0.00 | 47 | 1015.5 |
| 20260508173035 | 56 | 154 | 4.0 | 12.0 | 0.00 | 0.00 | 0.00 | 45 | 1015.6 |
| 20260508172520 | 56 | 101 | 5.0 | 13.0 | 0.00 | 0.00 | 0.00 | 46 | 1015.6 |
| 20260508172022 | 55 | 101 | 5.0 | 13.0 | 0.00 | 0.00 | 0.00 | 46 | 1015.7 |
| 20260508171546 | 55 | 97 | 5.0 | 13.0 | 0.00 | 0.00 | 0.00 | 45 | 1015.7 |
| 20260508171020 | 55 | 91 | 7.0 | 14.0 | 0.00 | 0.00 | 0.00 | 41 | 1015.9 |
| 20260508170520 | 56 | 163 | 8.0 | 15.0 | 0.00 | 0.00 | 0.00 | 42 | 1016.0 |
| 20260508170039 | 56 | 129 | 6.0 | 15.0 | 0.00 | 0.00 | 0.00 | 44 | 1016.0 |
| 20260508165520 | 55 | 200 | 7.0 | 15.0 | 0.00 | 0.00 | 0.00 | 47 | 1016.1 |
| 20260508165020 | 55 | 110 | 6.0 | 13.0 | 0.00 | 0.00 | 0.00 | 43 | 1016.1 |
| 20260508164541 | 55 | 86 | 4.0 | 14.0 | 0.00 | 0.00 | 0.00 | 47 | 1016.2 |
| 20260508164020 | 54 | 89 | 10.0 | 14.0 | 0.00 | 0.00 | 0.00 | 45 | 1016.3 |
| 20260508163521 | 54 | 91 | 6.0 | 15.0 | 0.00 | 0.00 | 0.00 | 43 | 1016.3 |
| 20260508163036 | 54 | 154 | 4.0 | 15.0 | 0.00 | 0.00 | 0.00 | 49 | 1016.3 |
| 20260508162520 | 54 | 98 | 8.0 | 15.0 | 0.00 | 0.00 | 0.00 | 47 | 1016.3 |
| 20260508162019 | 54 | 129 | 6.0 | 11.0 | 0.00 | 0.00 | 0.00 | 46 | 1016.3 |
| 20260508161542 | 54 | 148 | 5.0 | 15.0 | 0.00 | 0.00 | 0.00 | 43 | 1016.4 |
| 20260508161021 | 54 | 238 | 6.0 | 15.0 | 0.00 | 0.00 | 0.00 | 45 | 1016.5 |
| 20260508160521 | 53 | 65 | 8.0 | 15.0 | 0.00 | 0.00 | 0.00 | 46 | 1016.6 |
| 20260508160037 | 53 | 95 | 8.0 | 12.0 | 0.00 | 0.00 | 0.00 | 48 | 1016.6 |
| 20260508155521 | 53 | 86 | 6.0 | 12.0 | 0.00 | 0.00 | 0.00 | 44 | 1016.8 |
| 20260508155019 | 53 | 110 | 6.0 | 15.0 | 0.00 | 0.00 | 0.00 | 43 | 1016.8 |
| 20260508154532 | 52 | 91 | 8.0 | 17.0 | 0.00 | 0.00 | 0.00 | 48 | 1016.8 |
| 20260508154022 | 52 | 62 | 8.0 | 17.0 | 0.00 | 0.00 | 0.00 | 48 | 1016.7 |
| 20260508153521 | 53 | 96 | 7.0 | 13.0 | 0.00 | 0.00 | 0.00 | 46 | 1016.8 |
| 20260508153042 | 53 | 103 | 4.0 | 12.0 | 0.00 | 0.00 | 0.00 | 49 | 1016.8 |
| 20260508152520 | 52 | 125 | 6.0 | 13.0 | 0.00 | 0.00 | 0.00 | 46 | 1016.8 |
| 20260508152020 | 52 | 99 | 7.0 | 15.0 | 0.00 | 0.00 | 0.00 | 47 | 1016.9 |
| 20260508151542 | 52 | 113 | 9.0 | 15.0 | 0.00 | 0.00 | 0.00 | 46 | 1016.9 |
| 20260508151021 | 52 | 53 | 8.0 | 15.0 | 0.00 | 0.00 | 0.00 | 49 | 1016.7 |
| 20260508150520 | 52 | 90 | 7.0 | 13.0 | 0.00 | 0.00 | 0.00 | 49 | 1016.8 |
| 20260508150032 | 53 | 104 | 7.0 | 11.0 | 0.00 | 0.00 | 0.00 | 54 | 1016.9 |
| 20260508145520 | 54 | 78 | 4.0 | 10.0 | 0.00 | 0.00 | 0.00 | 53 | 1016.7 |
| 20260508145026 | 54 | 101 | 4.0 | 7.0 | 0.00 | 0.00 | 0.00 | 51 | 1016.8 |
| 20260508144537 | 54 | 106 | 1.0 | 6.0 | 0.00 | 0.00 | 0.00 | 51 | 1016.8 |
| 20260508144020 | 53 | 126 | 1.0 | 6.0 | 0.00 | 0.00 | 0.00 | 45 | 1016.8 |
| 20260508143522 | 53 | 249 | 2.0 | 4.0 | 0.00 | 0.00 | 0.00 | 46 | 1016.7 |
| 20260508143038 | 53 | 29 | 1.0 | 4.0 | 0.00 | 0.00 | 0.00 | 40 | 1016.7 |
| 20260508142523 | 52 | 0 | 0.0 | 5.0 | 0.00 | 0.00 | 0.00 | 42 | 1016.8 |
| 20260508142020 | 52 | 157 | 2.0 | 7.0 | 0.00 | 0.00 | 0.00 | 42 | 1016.9 |
| 20260508141537 | 51 | 97 | 4.0 | 7.0 | 0.00 | 0.00 | 0.00 | 44 | 1016.8 |
| 20260508141019 | 52 | 236 | 3.0 | 6.0 | 0.00 | 0.00 | 0.00 | 42 | 1016.8 |
| 20260508140520 | 52 | 188 | 2.0 | 5.0 | 0.00 | 0.00 | 0.00 | 41 | 1016.8 |
| 20260508140035 | 51 | 148 | 0.0 | 3.0 | 0.00 | 0.00 | 0.00 | 45 | 1016.9 |
| 20260508135522 | 50 | 239 | 1.0 | 5.0 | 0.00 | 0.00 | 0.00 | 45 | 1016.9 |
| 20260508135019 | 50 | 323 | 1.0 | 5.0 | 0.00 | 0.00 | 0.00 | 44 | 1016.9 |
| 20260508134535 | 51 | 218 | 3.0 | 5.0 | 0.00 | 0.00 | 0.00 | 41 | 1016.9 |
| 20260508134019 | 51 | 269 | 1.0 | 4.0 | 0.00 | 0.00 | 0.00 | 45 | 1016.8 |
| 20260508133521 | 50 | 210 | 2.0 | 4.0 | 0.00 | 0.00 | 0.00 | 43 | 1016.8 |
| 20260508133057 | 50 | 0 | 1.0 | 5.0 | 0.00 | 0.00 | 0.00 | 47 | 1016.8 |
| 20260508132521 | 49 | 208 | 2.0 | 5.0 | 0.00 | 0.00 | 0.00 | 46 | 1016.8 |
| 20260508132025 | 50 | 136 | 2.0 | 5.0 | 0.00 | 0.00 | 0.00 | 51 | 1016.6 |
| 20260508131538 | 49 | 114 | 1.0 | 3.0 | 0.00 | 0.00 | 0.00 | 53 | 1016.7 |
| 20260508131022 | 48 | 262 | 0.0 | 3.0 | 0.00 | 0.00 | 0.00 | 55 | 1016.7 |
| 20260508130522 | 48 | 217 | 1.0 | 3.0 | 0.00 | 0.00 | 0.00 | 56 | 1016.7 |
| 20260508130035 | 48 | 152 | 1.0 | 3.0 | 0.00 | 0.00 | 0.00 | 58 | 1016.6 |
| 20260508125520 | 46 | 304 | 0.0 | 4.0 | 0.00 | 0.00 | 0.00 | 59 | 1016.5 |
| 20260508125025 | 46 | 326 | 2.0 | 4.0 | 0.00 | 0.00 | 0.00 | 59 | 1016.6 |
| 20260508124536 | 46 | 300 | 2.0 | 4.0 | 0.00 | 0.00 | 0.00 | 64 | 1016.6 |
| 20260508124019 | 45 | 295 | 2.0 | 4.0 | 0.00 | 0.00 | 0.00 | 62 | 1016.5 |
| 20260508123523 | 46 | 307 | 1.0 | 4.0 | 0.00 | 0.00 | 0.00 | 62 | 1016.5 |
| 20260508123039 | 45 | 0 | 1.0 | 4.0 | 0.00 | 0.00 | 0.00 | 68 | 1016.4 |
| 20260508122519 | 45 | 319 | 1.0 | 3.0 | 0.00 | 0.00 | 0.00 | 68 | 1016.5 |
| 20260508122021 | 45 | 0 | 0.0 | 2.0 | 0.00 | 0.00 | 0.00 | 73 | 1016.4 |
| 20260508121536 | 45 | 76 | 0.0 | 1.0 | 0.00 | 0.00 | 0.00 | 78 | 1016.4 |
| 20260508121020 | 44 | 28 | 0.0 | 1.0 | 0.00 | 0.00 | 0.00 | 80 | 1016.4 |
| 20260508120521 | 44 | 0 | 0.0 | 0.0 | 0.00 | 0.00 | 0.00 | 81 | 1016.2 |
| 20260508120043 | 43 | 0 | 0.0 | 0.0 | 0.00 | 0.00 | 0.00 | 82 | 1016.2 |
| 20260508115522 | 43 | 0 | 0.0 | 0.0 | 0.00 | 0.03 | 0.00 | 83 | 1016.2 |
| 20260508115019 | 41 | 0 | 0.0 | 0.0 | 0.00 | 0.03 | 0.00 | 84 | 1016.2 |
| 20260508114535 | 41 | 0 | 0.0 | 0.0 | 0.00 | 0.03 | 0.00 | 85 | 1016.1 |
| 20260508114023 | 40 | 0 | 0.0 | 0.0 | 0.00 | 0.03 | 0.00 | 85 | 1015.8 |
| 20260508113520 | 40 | 0 | 0.0 | 0.0 | 0.00 | 0.03 | 0.00 | 84 | 1015.8 |
| 20260508113039 | 41 | 0 | 0.0 | 0.0 | 0.00 | 0.03 | 0.00 | 87 | 1015.7 |
| 20260508112520 | 39 | 0 | 0.0 | 2.0 | 0.00 | 0.03 | 0.00 | 88 | 1015.6 |
| 20260508112021 | 38 | 0 | 0.0 | 2.0 | 0.00 | 0.03 | 0.00 | 87 | 1015.6 |
| 20260508111540 | 39 | 342 | 0.0 | 2.0 | 0.00 | 0.03 | 0.00 | 87 | 1015.5 |
| 20260508111020 | 39 | 0 | 0.0 | 3.0 | 0.00 | 0.03 | 0.00 | 87 | 1015.4 |
| 20260508110521 | 38 | 0 | 1.0 | 3.0 | 0.00 | 0.03 | 0.00 | 89 | 1015.3 |
| 20260508110034 | 36 | 51 | 1.0 | 2.0 | 0.00 | 0.03 | 0.00 | 92 | 1015.2 |
| 20260508105520 | 36 | 70 | 2.0 | 2.0 | 0.00 | 0.06 | 0.00 | 93 | 1015.1 |
| 20260508105026 | 36 | 0 | 0.0 | 1.0 | 0.00 | 0.06 | 0.00 | 92 | 1015.1 |
| 20260508104533 | 36 | 94 | 1.0 | 2.0 | 0.00 | 0.06 | 0.00 | 91 | 1015.1 |
| 20260508104019 | 36 | 0 | 1.0 | 3.0 | 0.00 | 0.06 | 0.00 | 89 | 1014.9 |
| 20260508103520 | 37 | 75 | 2.0 | 3.0 | 0.00 | 0.06 | 0.00 | 88 | 1014.8 |
| 20260508103037 | 38 | 55 | 0.0 | 2.0 | 0.00 | 0.06 | 0.00 | 87 | 1014.7 |
| 20260508102519 | 38 | 349 | 0.0 | 3.0 | 0.00 | 0.06 | 0.00 | 86 | 1014.6 |
| 20260508102020 | 38 | 0 | 0.0 | 3.0 | 0.00 | 0.06 | 0.00 | 86 | 1014.5 |
| 20260508101543 | 38 | 303 | 0.0 | 6.0 | 0.00 | 0.06 | 0.00 | 86 | 1014.5 |
| 20260508101022 | 38 | 293 | 2.0 | 6.0 | 0.00 | 0.06 | 0.00 | 86 | 1014.4 |
| 20260508100521 | 38 | 313 | 2.0 | 7.0 | 0.00 | 0.06 | 0.00 | 87 | 1014.3 |
| 20260508100034 | 39 | 311 | 3.0 | 7.0 | 0.00 | 0.06 | 0.00 | 87 | 1014.2 |
| 20260508095520 | 39 | 319 | 3.0 | 7.0 | 0.00 | 0.07 | 0.00 | 87 | 1014.1 |
| 20260508095020 | 39 | 307 | 3.0 | 8.0 | 0.00 | 0.07 | 0.00 | 86 | 1014.1 |
| 20260508094535 | 39 | 331 | 4.0 | 8.0 | 0.00 | 0.07 | 0.00 | 86 | 1014.1 |
| 20260508094021 | 39 | 288 | 4.0 | 8.0 | 0.00 | 0.07 | 0.00 | 85 | 1014.2 |
| 20260508093521 | 40 | 311 | 2.0 | 7.0 | 0.00 | 0.07 | 0.00 | 85 | 1014.2 |
| 20260508093037 | 40 | 330 | 4.0 | 8.0 | 0.00 | 0.07 | 0.00 | 85 | 1014.2 |
| 20260508092521 | 40 | 299 | 4.0 | 8.0 | 0.00 | 0.07 | 0.00 | 86 | 1014.1 |
| 20260508092021 | 40 | 304 | 4.0 | 12.0 | 0.00 | 0.07 | 0.00 | 86 | 1014.1 |
| 20260508091604 | 40 | 279 | 4.0 | 12.0 | 0.00 | 0.07 | 0.00 | 86 | 1014.0 |
| 20260508091021 | 40 | 233 | 4.0 | 8.0 | 0.00 | 0.07 | 0.00 | 86 | 1013.8 |
| 20260508090520 | 40 | 299 | 2.0 | 9.0 | 0.00 | 0.07 | 0.00 | 86 | 1013.8 |
| 20260508090036 | 40 | 293 | 4.0 | 9.0 | 0.00 | 0.07 | 0.00 | 85 | 1013.9 |
| 20260508085521 | 40 | 297 | 4.0 | 9.0 | 0.00 | 0.07 | 0.00 | 87 | 1013.9 |
| 20260508085021 | 40 | 328 | 3.0 | 8.0 | 0.00 | 0.07 | 0.00 | 88 | 1013.9 |
| 20260508084535 | 40 | 310 | 4.0 | 8.0 | 0.00 | 0.07 | 0.00 | 89 | 1014.0 |
| 20260508084030 | 40 | 319 | 1.0 | 7.0 | 0.00 | 0.07 | 0.00 | 90 | 1014.1 |
| 20260508083522 | 40 | 307 | 3.0 | 7.0 | 0.00 | 0.07 | 0.00 | 90 | 1013.9 |
| 20260508083038 | 40 | 273 | 1.0 | 5.0 | 0.00 | 0.07 | 0.00 | 91 | 1013.9 |
| 20260508082522 | 40 | 245 | 1.0 | 5.0 | 0.00 | 0.07 | 0.00 | 91 | 1013.9 |
| 20260508082021 | 40 | 304 | 2.0 | 5.0 | 0.00 | 0.07 | 0.00 | 91 | 1013.9 |
| 20260508081545 | 40 | 291 | 1.0 | 5.0 | 0.00 | 0.07 | 0.00 | 91 | 1013.9 |
| 20260508081021 | 40 | 302 | 1.0 | 4.0 | 0.00 | 0.07 | 0.00 | 92 | 1014.0 |
| 20260508080521 | 40 | 268 | 1.0 | 5.0 | 0.00 | 0.07 | 0.00 | 91 | 1013.9 |
| 20260508080038 | 40 | 0 | 2.0 | 6.0 | 0.00 | 0.07 | 0.00 | 91 | 1014.0 |
| 20260508075520 | 40 | 319 | 1.0 | 8.0 | 0.00 | 0.07 | 0.00 | 91 | 1014.0 |
| 20260508075025 | 41 | 287 | 3.0 | 8.0 | 0.00 | 0.07 | 0.00 | 91 | 1013.9 |
| 20260508074535 | 41 | 321 | 3.0 | 8.0 | 0.00 | 0.07 | 0.00 | 91 | 1013.8 |
| 20260508074022 | 41 | 289 | 4.0 | 8.0 | 0.00 | 0.07 | 0.00 | 91 | 1013.9 |
| 20260508073520 | 41 | 313 | 3.0 | 8.0 | 0.00 | 0.07 | 0.00 | 92 | 1013.8 |
| 20260508073036 | 41 | 326 | 2.0 | 8.0 | 0.00 | 0.07 | 0.00 | 92 | 1013.7 |
| 20260508072522 | 41 | 0 | 1.0 | 7.0 | 0.00 | 0.07 | 0.00 | 91 | 1013.8 |
| 20260508072021 | 41 | 308 | 1.0 | 8.0 | 0.00 | 0.07 | 0.00 | 91 | 1013.6 |
| 20260508071540 | 41 | 297 | 3.0 | 8.0 | 0.00 | 0.07 | 0.00 | 91 | 1013.7 |
| 20260508071025 | 41 | 300 | 1.0 | 8.0 | 0.00 | 0.07 | 0.00 | 91 | 1013.6 |
| 20260508070525 | 42 | 273 | 3.0 | 8.0 | 0.00 | 0.07 | 0.00 | 90 | 1013.5 |
| 20260508070039 | 42 | 358 | 5.0 | 9.0 | 0.00 | 0.07 | 0.00 | 90 | 1013.6 |
| 20260508065521 | 42 | 313 | 4.0 | 9.0 | 0.00 | 0.07 | 0.00 | 89 | 1013.5 |
| 20260508065022 | 42 | 288 | 3.0 | 13.0 | 0.00 | 0.07 | 0.00 | 89 | 1013.6 |
| 20260508064538 | 42 | 323 | 4.0 | 13.0 | 0.00 | 0.07 | 0.00 | 89 | 1013.6 |
| 20260508064023 | 42 | 319 | 4.0 | 13.0 | 0.00 | 0.07 | 0.00 | 88 | 1013.6 |
| 20260508063521 | 43 | 8 | 4.0 | 11.0 | 0.00 | 0.07 | 0.00 | 87 | 1013.6 |
| 20260508063105 | 43 | 298 | 4.0 | 13.0 | 0.00 | 0.07 | 0.00 | 87 | 1013.7 |
| 20260508062526 | 43 | 248 | 6.0 | 14.0 | 0.00 | 0.07 | 0.00 | 86 | 1013.6 |
| 20260508062021 | 43 | 321 | 4.0 | 14.0 | 0.00 | 0.07 | 0.00 | 86 | 1013.6 |
| 20260508061540 | 43 | 311 | 3.0 | 14.0 | 0.00 | 0.07 | 0.00 | 86 | 1013.6 |
| 20260508061022 | 44 | 330 | 5.0 | 14.0 | 0.00 | 0.07 | 0.00 | 86 | 1013.7 |
| 20260508060525 | 44 | 327 | 5.0 | 15.0 | 0.00 | 0.07 | 0.00 | 85 | 1013.5 |
| 20260508060038 | 44 | 307 | 6.0 | 15.0 | 0.00 | 0.07 | 0.00 | 86 | 1013.8 |
| 20260508055521 | 44 | 295 | 6.0 | 15.0 | 0.00 | 0.07 | 0.00 | 87 | 1013.7 |
| 20260508055022 | 44 | 32 | 6.0 | 13.0 | 0.00 | 0.07 | 0.00 | 87 | 1013.7 |
| 20260508054535 | 44 | 284 | 7.0 | 13.0 | 0.00 | 0.07 | 0.00 | 86 | 1013.8 |
| 20260508054019 | 44 | 241 | 3.0 | 12.0 | 0.00 | 0.07 | 0.00 | 85 | 1013.6 |
| 20260508053520 | 45 | 312 | 3.0 | 12.0 | 0.00 | 0.07 | 0.00 | 84 | 1013.6 |
| 20260508053050 | 45 | 314 | 4.0 | 12.0 | 0.00 | 0.07 | 0.00 | 83 | 1013.8 |
| 20260508052521 | 45 | 321 | 5.0 | 19.0 | 0.00 | 0.07 | 0.00 | 83 | 1013.7 |
| 20260508052022 | 45 | 27 | 1.0 | 19.0 | 0.00 | 0.07 | 0.00 | 83 | 1013.6 |
| 20260508051557 | 45 | 271 | 3.0 | 17.0 | 0.00 | 0.07 | 0.00 | 83 | 1013.6 |
| 20260508051021 | 45 | 298 | 3.0 | 12.0 | 0.00 | 0.07 | 0.00 | 83 | 1013.7 |
| 20260508050522 | 45 | 205 | 3.0 | 13.0 | 0.00 | 0.07 | 0.00 | 83 | 1013.6 |
| 20260508050039 | 45 | 243 | 6.0 | 15.0 | 0.00 | 0.07 | 0.00 | 84 | 1013.7 |
| 20260508045521 | 45 | 12 | 3.0 | 15.0 | 0.00 | 0.08 | 0.00 | 83 | 1013.6 |
| 20260508045025 | 45 | 322 | 5.0 | 16.0 | 0.00 | 0.08 | 0.00 | 83 | 1013.6 |
| 20260508044537 | 45 | 257 | 6.0 | 16.0 | 0.00 | 0.08 | 0.00 | 82 | 1013.7 |
| 20260508044022 | 45 | 303 | 5.0 | 16.0 | 0.00 | 0.08 | 0.00 | 82 | 1013.7 |
| 20260508043521 | 45 | 323 | 4.0 | 16.0 | 0.00 | 0.08 | 0.00 | 82 | 1013.5 |
| 20260508043035 | 45 | 2 | 6.0 | 16.0 | 0.00 | 0.08 | 0.00 | 82 | 1013.5 |
| 20260508042521 | 45 | 240 | 5.0 | 14.0 | 0.00 | 0.08 | 0.00 | 82 | 1013.6 |
| 20260508042024 | 46 | 317 | 6.0 | 14.0 | 0.00 | 0.08 | 0.00 | 82 | 1013.6 |
| 20260508041536 | 45 | 307 | 6.0 | 14.0 | 0.00 | 0.08 | 0.00 | 83 | 1013.6 |
| 20260508041021 | 45 | 330 | 5.0 | 11.0 | 0.00 | 0.08 | 0.00 | 84 | 1013.6 |
| 20260508040522 | 45 | 268 | 5.0 | 11.0 | 0.00 | 0.08 | 0.00 | 84 | 1013.7 |
| 20260508040034 | 45 | 300 | 6.0 | 11.0 | 0.00 | 0.08 | 0.00 | 84 | 1013.6 |
| 20260508035520 | 45 | 319 | 4.0 | 10.0 | 0.00 | 0.09 | 0.08 | 85 | 1013.7 |
| 20260508035021 | 45 | 348 | 4.0 | 10.0 | 0.00 | 0.09 | 0.08 | 85 | 1013.6 |
| 20260508034538 | 45 | 328 | 4.0 | 12.0 | 0.00 | 0.09 | 0.08 | 85 | 1013.5 |
| 20260508034020 | 46 | 284 | 6.0 | 12.0 | 0.00 | 0.09 | 0.08 | 84 | 1013.5 |
| 20260508033520 | 45 | 290 | 5.0 | 10.0 | 0.00 | 0.09 | 0.08 | 86 | 1013.5 |
| 20260508033044 | 45 | 314 | 4.0 | 13.0 | 0.00 | 0.09 | 0.08 | 85 | 1013.5 |
| 20260508032519 | 46 | 248 | 5.0 | 13.0 | 0.00 | 0.09 | 0.08 | 85 | 1013.8 |
| 20260508032020 | 45 | 290 | 5.0 | 11.0 | 0.00 | 0.09 | 0.08 | 85 | 1013.7 |
| 20260508031538 | 45 | 317 | 6.0 | 11.0 | 0.00 | 0.09 | 0.08 | 86 | 1013.7 |
| 20260508031020 | 45 | 277 | 4.0 | 10.0 | 0.00 | 0.09 | 0.08 | 87 | 1013.6 |
| 20260508030521 | 45 | 273 | 3.0 | 10.0 | 0.00 | 0.09 | 0.08 | 87 | 1013.6 |
| 20260508030043 | 45 | 304 | 4.0 | 10.0 | 0.00 | 0.09 | 0.08 | 87 | 1013.6 |
| 20260508025520 | 45 | 292 | 3.0 | 13.0 | 0.00 | 0.10 | 0.08 | 87 | 1013.6 |
| 20260508025020 | 45 | 246 | 5.0 | 15.0 | 0.00 | 0.10 | 0.08 | 86 | 1013.5 |
| 20260508024538 | 45 | 321 | 5.0 | 15.0 | 0.00 | 0.10 | 0.08 | 87 | 1013.4 |
| 20260508024021 | 45 | 332 | 5.0 | 12.0 | 0.00 | 0.10 | 0.08 | 87 | 1013.2 |
| 20260508023521 | 45 | 309 | 5.0 | 12.0 | 0.00 | 0.10 | 0.08 | 87 | 1013.1 |
| 20260508023036 | 45 | 309 | 5.0 | 12.0 | 0.00 | 0.10 | 0.08 | 86 | 1013.1 |
| 20260508022520 | 45 | 308 | 6.0 | 12.0 | 0.00 | 0.10 | 0.08 | 86 | 1013.3 |
| 20260508022020 | 45 | 281 | 4.0 | 16.0 | 0.00 | 0.10 | 0.08 | 87 | 1013.3 |
| 20260508021538 | 45 | 303 | 5.0 | 16.0 | 0.00 | 0.10 | 0.08 | 88 | 1013.2 |
| 20260508021027 | 45 | 265 | 5.0 | 16.0 | 0.00 | 0.10 | 0.08 | 88 | 1013.1 |
| 20260508020519 | 45 | 293 | 5.0 | 14.0 | 0.00 | 0.10 | 0.08 | 88 | 1013.1 |
| 20260508020036 | 45 | 287 | 4.0 | 12.0 | 0.00 | 0.10 | 0.08 | 88 | 1013.1 |
| 20260508015519 | 45 | 320 | 3.0 | 12.0 | 0.00 | 0.17 | 0.08 | 88 | 1013.0 |
| 20260508015020 | 45 | 304 | 6.0 | 12.0 | 0.00 | 0.17 | 0.08 | 88 | 1012.9 |
| 20260508014535 | 45 | 290 | 5.0 | 10.0 | 0.00 | 0.17 | 0.08 | 88 | 1012.7 |
| 20260508014020 | 44 | 314 | 6.0 | 11.0 | 0.00 | 0.17 | 0.08 | 88 | 1012.8 |
| 20260508013521 | 44 | 298 | 5.0 | 11.0 | 0.00 | 0.17 | 0.08 | 88 | 1012.8 |
| 20260508013039 | 44 | 322 | 3.0 | 11.0 | 0.00 | 0.17 | 0.08 | 89 | 1012.6 |
| 20260508012521 | 44 | 257 | 4.0 | 11.0 | 0.00 | 0.17 | 0.08 | 89 | 1012.5 |
| 20260508012020 | 44 | 323 | 4.0 | 10.0 | 0.00 | 0.17 | 0.08 | 88 | 1012.3 |
| 20260508011540 | 44 | 301 | 4.0 | 9.0 | 0.00 | 0.17 | 0.08 | 88 | 1012.4 |
| 20260508011021 | 44 | 309 | 4.0 | 10.0 | 0.00 | 0.17 | 0.08 | 88 | 1012.3 |
| 20260508010524 | 44 | 331 | 4.0 | 12.0 | 0.00 | 0.17 | 0.08 | 88 | 1012.1 |
| 20260508010053 | 45 | 261 | 3.0 | 12.0 | 0.00 | 0.17 | 0.08 | 88 | 1012.2 |
| 20260508005523 | 45 | 333 | 7.0 | 12.0 | 0.00 | 0.18 | 0.08 | 88 | 1012.2 |
| 20260508005021 | 44 | 327 | 5.0 | 12.0 | 0.00 | 0.18 | 0.08 | 88 | 1012.0 |
| 20260508004535 | 44 | 224 | 4.0 | 13.0 | 0.00 | 0.18 | 0.08 | 88 | 1011.8 |
| 20260508004019 | 44 | 279 | 5.0 | 13.0 | 0.00 | 0.18 | 0.08 | 88 | 1011.6 |
| 20260508003520 | 45 | 245 | 5.0 | 12.0 | 0.00 | 0.18 | 0.08 | 88 | 1011.8 |
| 20260508003031 | 45 | 320 | 4.0 | 11.0 | 0.00 | 0.18 | 0.08 | 88 | 1011.6 |
| 20260508002522 | 45 | 309 | 5.0 | 11.0 | 0.00 | 0.18 | 0.08 | 88 | 1011.6 |
| 20260508002021 | 45 | 300 | 5.0 | 11.0 | 0.00 | 0.18 | 0.08 | 88 | 1011.6 |
| 20260508001537 | 45 | 271 | 5.0 | 10.0 | 0.00 | 0.18 | 0.08 | 88 | 1011.6 |
| 20260508001021 | 45 | 316 | 4.0 | 9.0 | 0.00 | 0.18 | 0.08 | 88 | 1011.6 |
| 20260508000521 | 45 | 263 | 4.0 | 9.0 | 0.00 | 0.18 | 0.08 | 88 | 1011.7 |
| 20260508000044 | 45 | 309 | 4.0 | 11.0 | 0.00 | 0.18 | 0.08 | 88 | 1011.8 |
| 20260507235524 | 45 | 310 | 4.0 | 11.0 | 0.00 | 0.27 | 0.08 | 87 | 1011.8 |
| 20260507235024 | 46 | 314 | 6.0 | 12.0 | 0.00 | 0.27 | 0.08 | 86 | 1011.8 |
| 20260507234536 | 46 | 316 | 4.0 | 12.0 | 0.00 | 0.27 | 0.08 | 86 | 1012.0 |
| 20260507234021 | 46 | 302 | 4.0 | 15.0 | 0.00 | 0.27 | 0.08 | 86 | 1012.0 |
| 20260507233520 | 46 | 267 | 6.0 | 15.0 | 0.00 | 0.27 | 0.08 | 85 | 1012.0 |
| 20260507233039 | 46 | 328 | 5.0 | 11.0 | 0.00 | 0.27 | 0.08 | 86 | 1012.1 |
| 20260507232523 | 46 | 231 | 4.0 | 12.0 | 0.00 | 0.27 | 0.08 | 86 | 1012.1 |
| 20260507232021 | 46 | 257 | 4.0 | 12.0 | 0.00 | 0.27 | 0.08 | 86 | 1012.1 |
| 20260507231534 | 46 | 281 | 4.0 | 12.0 | 0.00 | 0.27 | 0.08 | 86 | 1012.1 |
| 20260507231020 | 46 | 313 | 5.0 | 12.0 | 0.00 | 0.27 | 0.08 | 86 | 1011.9 |
| 20260507230520 | 46 | 266 | 6.0 | 12.0 | 0.00 | 0.27 | 0.08 | 86 | 1012.1 |
| 20260507230047 | 46 | 280 | 4.0 | 11.0 | 0.00 | 0.27 | 0.08 | 87 | 1012.0 |
| 20260507225521 | 46 | 299 | 4.0 | 12.0 | 0.00 | 0.32 | 0.08 | 86 | 1011.9 |
| 20260507225021 | 46 | 289 | 6.0 | 12.0 | 0.00 | 0.32 | 0.08 | 86 | 1012.0 |
| 20260507224537 | 46 | 338 | 4.0 | 8.0 | 0.00 | 0.32 | 0.08 | 87 | 1011.9 |
| 20260507224026 | 46 | 356 | 3.0 | 7.0 | 0.00 | 0.32 | 0.08 | 89 | 1012.1 |
| 20260507223527 | 46 | 328 | 2.0 | 8.0 | 0.00 | 0.32 | 0.08 | 91 | 1011.9 |
| 20260507223106 | 46 | 333 | 2.0 | 9.0 | 0.00 | 0.32 | 0.08 | 92 | 1011.9 |
| 20260507222521 | 45 | 313 | 4.0 | 12.0 | 0.00 | 0.32 | 0.08 | 92 | 1011.9 |
| 20260507222018 | 45 | 48 | 4.0 | 12.0 | 0.00 | 0.32 | 0.08 | 92 | 1011.9 |
| 20260507221535 | 45 | 274 | 3.0 | 13.0 | 0.00 | 0.32 | 0.08 | 92 | 1011.8 |
| 20260507221022 | 45 | 268 | 6.0 | 13.0 | 0.00 | 0.32 | 0.08 | 91 | 1011.8 |
| 20260507220521 | 46 | 293 | 5.0 | 13.0 | 0.00 | 0.32 | 0.08 | 92 | 1011.7 |
| 20260507220035 | 46 | 310 | 6.0 | 13.0 | 0.00 | 0.32 | 0.08 | 91 | 1011.6 |
| 20260507215523 | 46 | 359 | 4.0 | 13.0 | 0.00 | 0.34 | 0.08 | 92 | 1011.6 |
| 20260507215020 | 46 | 326 | 5.0 | 10.0 | 0.00 | 0.34 | 0.08 | 91 | 1011.7 |
| 20260507214536 | 46 | 250 | 3.0 | 13.0 | 0.00 | 0.34 | 0.08 | 92 | 1011.6 |
| 20260507214020 | 46 | 9 | 3.0 | 13.0 | 0.00 | 0.34 | 0.08 | 92 | 1011.5 |
| 20260507213521 | 46 | 37 | 6.0 | 13.0 | 0.00 | 0.34 | 0.08 | 92 | 1011.5 |
| 20260507213039 | 46 | 301 | 4.0 | 12.0 | 0.00 | 0.34 | 0.08 | 93 | 1011.3 |
| 20260507212521 | 46 | 302 | 4.0 | 12.0 | 0.00 | 0.34 | 0.08 | 93 | 1011.3 |
| 20260507212021 | 46 | 270 | 3.0 | 14.0 | 0.00 | 0.34 | 0.08 | 93 | 1011.3 |
| 20260507211536 | 47 | 56 | 3.0 | 14.0 | 0.00 | 0.34 | 0.08 | 93 | 1011.1 |
| 20260507211019 | 47 | 310 | 5.0 | 10.0 | 0.00 | 0.34 | 0.08 | 93 | 1011.1 |
| 20260507210522 | 48 | 55 | 5.0 | 10.0 | 0.00 | 0.34 | 0.08 | 93 | 1010.9 |
| 20260507210042 | 48 | 303 | 3.0 | 11.0 | 0.00 | 0.34 | 0.08 | 92 | 1011.0 |
| 20260507205522 | 48 | 12 | 2.0 | 11.0 | 0.00 | 0.34 | 0.08 | 92 | 1010.9 |
| 20260507205021 | 48 | 312 | 5.0 | 11.0 | 0.00 | 0.34 | 0.08 | 92 | 1011.0 |
| 20260507204537 | 48 | 311 | 4.0 | 11.0 | 0.00 | 0.34 | 0.08 | 91 | 1010.8 |
| 20260507204021 | 49 | 349 | 5.0 | 12.0 | 0.00 | 0.34 | 0.08 | 90 | 1010.6 |
| 20260507203523 | 49 | 273 | 4.0 | 12.0 | 0.00 | 0.34 | 0.08 | 90 | 1010.6 |
| 20260507203038 | 49 | 299 | 5.0 | 12.0 | 0.00 | 0.34 | 0.08 | 90 | 1010.6 |
| 20260507202520 | 49 | 304 | 5.0 | 10.0 | 0.00 | 0.34 | 0.08 | 90 | 1010.6 |
| 20260507202023 | 49 | 257 | 4.0 | 10.0 | 0.00 | 0.34 | 0.08 | 91 | 1010.6 |
| 20260507201541 | 49 | 347 | 4.0 | 10.0 | 0.00 | 0.34 | 0.08 | 90 | 1010.7 |
| 20260507201029 | 50 | 315 | 3.0 | 10.0 | 0.00 | 0.34 | 0.08 | 90 | 1010.7 |
| 20260507200521 | 50 | 307 | 3.0 | 11.0 | 0.00 | 0.34 | 0.08 | 90 | 1010.6 |
| 20260507200050 | 50 | 329 | 3.0 | 11.0 | 0.00 | 0.34 | 0.08 | 91 | 1010.4 |
| 20260507195520 | 50 | 21 | 4.0 | 15.0 | 0.00 | 0.34 | 0.08 | 90 | 1010.4 |
| 20260507195021 | 50 | 335 | 3.0 | 15.0 | 0.00 | 0.34 | 0.08 | 90 | 1010.4 |
| 20260507194535 | 50 | 281 | 7.0 | 15.0 | 0.00 | 0.34 | 0.08 | 89 | 1010.6 |
| 20260507194020 | 51 | 313 | 6.0 | 15.0 | 0.00 | 0.34 | 0.08 | 88 | 1010.4 |
| 20260507193521 | 52 | 293 | 6.0 | 15.0 | 0.00 | 0.34 | 0.08 | 88 | 1010.3 |
| 20260507193046 | 52 | 312 | 5.0 | 15.0 | 0.00 | 0.34 | 0.08 | 88 | 1010.3 |
| 20260507192520 | 53 | 311 | 7.0 | 16.0 | 0.00 | 0.34 | 0.08 | 87 | 1010.1 |
| 20260507192020 | 53 | 326 | 6.0 | 16.0 | 0.00 | 0.34 | 0.08 | 89 | 1010.3 |
| 20260507191539 | 52 | 293 | 5.0 | 13.0 | 0.00 | 0.34 | 0.08 | 89 | 1010.2 |
| 20260507191022 | 53 | 358 | 6.0 | 15.0 | 0.00 | 0.34 | 0.08 | 89 | 1010.2 |
| 20260507190520 | 53 | 354 | 6.0 | 15.0 | 0.00 | 0.34 | 0.08 | 89 | 1010.3 |
| 20260507190038 | 53 | 302 | 4.0 | 16.0 | 0.00 | 0.34 | 0.08 | 90 | 1010.3 |
| 20260507185520 | 53 | 5 | 3.0 | 16.0 | 0.00 | 0.34 | 0.08 | 89 | 1010.3 |
| 20260507185021 | 53 | 314 | 5.0 | 18.0 | 0.00 | 0.34 | 0.08 | 87 | 1010.7 |
| 20260507184535 | 54 | 340 | 6.0 | 18.0 | 0.00 | 0.34 | 0.08 | 86 | 1010.6 |
| 20260507184021 | 54 | 32 | 7.0 | 18.0 | 0.00 | 0.34 | 0.08 | 86 | 1010.6 |
| 20260507183521 | 54 | 27 | 9.0 | 17.0 | 0.00 | 0.34 | 0.08 | 85 | 1010.3 |
| 20260507183039 | 55 | 326 | 3.0 | 17.0 | 0.00 | 0.34 | 0.08 | 87 | 1010.2 |
| 20260507182520 | 54 | 305 | 6.0 | 18.0 | 0.00 | 0.34 | 0.08 | 87 | 1010.4 |
| 20260507182021 | 54 | 319 | 7.0 | 18.0 | 0.00 | 0.34 | 0.08 | 87 | 1010.4 |
| 20260507181540 | 55 | 309 | 7.0 | 16.0 | 0.00 | 0.34 | 0.08 | 87 | 1010.4 |
| 20260507181024 | 55 | 349 | 6.0 | 16.0 | 0.00 | 0.34 | 0.08 | 88 | 1010.5 |
| 20260507180525 | 54 | 324 | 2.0 | 12.0 | 0.00 | 0.34 | 0.08 | 90 | 1010.6 |
| 20260507180039 | 53 | 311 | 3.0 | 12.0 | 0.00 | 0.34 | 0.08 | 90 | 1010.3 |